Track PLEIADES 1B now! 10-day predictions PLEIADES 1B is classified as:
1 39019U 12068A 23267.77905761 .00000682 00000-0 15655-3 0 9992 2 39019 98.1871 341.1684 0001248 90.7606 269.3737 14.58569054575605